Pampa, TX

9:25 PM CDT on August 17, 2017 (GMT -0500)
Perry Lefors

Weather History for KPPA - November, 2012

Change the Weather History Date:

Tuesday, November 13, 2012

  Actual Average Record
Temperature  
Mean Temperature 42 °F -  
Max Temperature 55 °F 59 °F 84 °F (1989)
Min Temperature 28 °F 34 °F 11 °F (1986)
Degree Days  
Heating Degree Days 24    
Moisture  
Dew Point 16 °F    
Average Humidity 39    
Maximum Humidity 55    
Minimum Humidity 20    
Precipitation  
Precipitation 0.00 in - - ()
Sea Level Pressure  
Sea Level Pressure 30.29 in    
Wind  
Wind Speed 13 mph (SSW)    
Max Wind Speed 23 mph    
Max Gust Speed 31 mph    
Visibility 10 miles    
Events      
Averages and records for this station are not official NWS values.
T = Trace of Precipitation, MM = Missing Value Source: NWS Daily Summary

Daily Weather History Graph

Daily Weather History Graph

Search for Another Location

Airport or City:

Trip Planner

Search our weather history database for the weather conditions in past years. The results will help you decide how hot, cold, wet, or windy it might be!

Date:

Astronomy

Nov. 13, 2012 Rise Set
Actual Time 7:18 AM CST 5:38 PM CST
Civil Twilight 6:51 AM CST 6:05 PM CST
Nautical Twilight 6:20 AM CST 6:35 PM CST
Astronomical Twilight 5:50 AM CST 7:06 PM CST
Moon 6:58 AM CST (11/13) 5:33 PM CST (11/13)
Length of Visible Light 11h 14m
Length of Day
10h 19m
Waning Crescent, 0% of the Moon is Illuminated
Nov 13
Waning Crescent
Nov 13
New
Nov 20
First Quarter
Nov 28
Full
Dec 6
Last Quarter

Hourly Weather History & Observations

Time (CST) Temp. Windchill Dew Point Humidity Pressure Visibility Wind Dir Wind Speed Gust Speed Precip Events Conditions
12:15 AM 32.0 °F 23.6 °F 15.8 °F 51% 30.41 in 10.0 mi South 10.4 mph - N/A   Clear
12:55 AM 32.0 °F 23.0 °F 15.8 °F 51% 30.40 in 10.0 mi South 11.5 mph - N/A   Clear
1:15 AM 30.2 °F 21.3 °F 14.0 °F 51% 30.39 in 10.0 mi South 10.4 mph - N/A   Clear
1:35 AM 30.2 °F 21.3 °F 15.8 °F 55% 30.39 in 10.0 mi South 10.4 mph - N/A   Clear
1:55 AM 30.2 °F 20.8 °F 15.8 °F 55% 30.38 in 10.0 mi South 11.5 mph - N/A   Clear
2:15 AM 30.2 °F 21.3 °F 15.8 °F 55% 30.38 in 10.0 mi South 10.4 mph - N/A   Clear
2:35 AM 28.4 °F 19.1 °F 14.0 °F 55% 30.37 in 10.0 mi SSW 10.4 mph - N/A   Clear
2:55 AM 30.2 °F 20.8 °F 14.0 °F 51% 30.36 in 10.0 mi SSW 11.5 mph - N/A   Clear
3:15 AM 30.2 °F 21.3 °F 14.0 °F 51% 30.36 in 10.0 mi SSW 10.4 mph - N/A   Clear
3:35 AM 30.2 °F 20.8 °F 15.8 °F 55% 30.36 in 10.0 mi SSW 11.5 mph - N/A   Clear
3:55 AM 30.2 °F 21.3 °F 14.0 °F 51% 30.35 in 10.0 mi SSW 10.4 mph - N/A   Clear
4:15 AM 30.2 °F 20.8 °F 15.8 °F 55% 30.35 in 10.0 mi SSW 11.5 mph - N/A   Clear
4:35 AM 30.2 °F 20.2 °F 15.8 °F 55% 30.35 in 10.0 mi SSW 12.7 mph - N/A   Clear
4:55 AM 30.2 °F 20.8 °F 15.8 °F 55% 30.34 in 10.0 mi SSW 11.5 mph - N/A   Clear
5:15 AM 30.2 °F 21.3 °F 15.8 °F 55% 30.34 in 10.0 mi SSW 10.4 mph - N/A   Clear
5:35 AM 30.2 °F 21.3 °F 15.8 °F 55% 30.34 in 10.0 mi SSW 10.4 mph - N/A   Clear
5:55 AM 32.0 °F 22.5 °F 15.8 °F 51% 30.35 in 10.0 mi SSW 12.7 mph - N/A   Clear
6:15 AM 32.0 °F 22.5 °F 15.8 °F 51% 30.35 in 10.0 mi SSW 12.7 mph - N/A   Clear
6:35 AM 32.0 °F 22.5 °F 17.6 °F 55% 30.35 in 10.0 mi SSW 12.7 mph - N/A   Clear
6:55 AM 32.0 °F 22.5 °F 15.8 °F 51% 30.35 in 10.0 mi SSW 12.7 mph - N/A   Clear
7:15 AM 32.0 °F 22.5 °F 17.6 °F 55% 30.35 in 10.0 mi SSW 12.7 mph - N/A   Clear
7:35 AM 32.0 °F 23.0 °F 17.6 °F 55% 30.35 in 10.0 mi SSW 11.5 mph - N/A   Clear
7:55 AM 32.0 °F 22.5 °F 17.6 °F 55% 30.35 in 10.0 mi SSW 12.7 mph - N/A   Clear
8:15 AM 33.8 °F 24.3 °F 17.6 °F 52% 30.35 in 10.0 mi SSW 13.8 mph - N/A   Clear
8:35 AM 35.6 °F 25.9 °F 17.6 °F 48% 30.34 in 10.0 mi SSW 16.1 mph 21.9 mph N/A   Clear
8:55 AM 39.2 °F 30.2 °F 17.6 °F 42% 30.34 in 10.0 mi SSW 17.3 mph - N/A   Clear
9:15 AM 41.0 °F 31.9 °F 17.6 °F 39% 30.34 in 10.0 mi SSW 19.6 mph - N/A   Clear
9:35 AM 42.8 °F 33.5 °F 17.6 °F 36% 30.34 in 10.0 mi SSW 23.0 mph 27.6 mph N/A   Clear
9:55 AM 44.6 °F 35.9 °F 17.6 °F 34% 30.34 in 10.0 mi SSW 23.0 mph 26.5 mph N/A   Clear
10:15 AM 46.4 °F 38.7 °F 17.6 °F 32% 30.34 in 10.0 mi SSW 20.7 mph 25.3 mph N/A   Clear
10:35 AM 48.2 °F - 17.6 °F 30% 30.34 in 10.0 mi SW 18.4 mph 24.2 mph N/A   Clear
10:55 AM 48.2 °F - 17.6 °F 30% 30.34 in 10.0 mi SW 19.6 mph 25.3 mph N/A   Clear
11:15 AM 50.0 °F - 17.6 °F 28% 30.34 in 10.0 mi SW 19.6 mph 25.3 mph N/A   Clear
11:35 AM 50.0 °F - 17.6 °F 28% 30.32 in 10.0 mi SSW 19.6 mph 26.5 mph N/A   Clear
11:55 AM 50.0 °F - 17.6 °F 28% 30.30 in 10.0 mi SSW 20.7 mph - N/A   Clear
12:15 PM 51.8 °F - 15.8 °F 24% 30.29 in 10.0 mi SSW 19.6 mph 25.3 mph N/A   Clear
12:55 PM 51.8 °F - 15.8 °F 24% 30.27 in 10.0 mi SSW 20.7 mph 28.8 mph N/A   Clear
1:15 PM 50.0 °F - 15.8 °F 26% 30.26 in 10.0 mi South 18.4 mph 21.9 mph N/A   Clear
1:35 PM 51.8 °F - 15.8 °F 24% 30.23 in 10.0 mi SSW 19.6 mph - N/A   Clear
1:55 PM 53.6 °F - 15.8 °F 22% 30.22 in 10.0 mi SSW 20.7 mph 26.5 mph N/A   Clear
2:15 PM 53.6 °F - 15.8 °F 22% 30.21 in 10.0 mi SSW 23.0 mph 29.9 mph N/A   Clear
2:35 PM 55.4 °F - 15.8 °F 21% 30.19 in 10.0 mi South 18.4 mph 31.1 mph N/A   Clear
2:55 PM 55.4 °F - 17.6 °F 23% 30.20 in 10.0 mi South 17.3 mph 23.0 mph N/A   Clear
3:15 PM 55.4 °F - 17.6 °F 23% 30.21 in 10.0 mi South 18.4 mph - N/A   Clear
3:35 PM 55.4 °F - 15.8 °F 21% 30.21 in 10.0 mi SSW 15.0 mph 21.9 mph N/A   Clear
3:55 PM 55.4 °F - 14.0 °F 20% 30.21 in 10.0 mi SW 16.1 mph 21.9 mph N/A   Clear
4:15 PM 55.4 °F - 15.8 °F 21% 30.19 in 10.0 mi SSW 13.8 mph - N/A   Clear
4:35 PM 55.4 °F - 15.8 °F 21% 30.19 in 10.0 mi SSW 16.1 mph - N/A   Clear
4:55 PM 53.6 °F - 15.8 °F 22% 30.19 in 10.0 mi SSW 13.8 mph - N/A   Clear
5:15 PM 51.8 °F - 17.6 °F 26% 30.21 in 10.0 mi SSW 12.7 mph - N/A   Clear
5:35 PM 50.0 °F - 17.6 °F 28% 30.22 in 10.0 mi SSW 10.4 mph - N/A   Clear
5:55 PM 46.4 °F 41.9 °F 15.8 °F 29% 30.22 in 10.0 mi SSW 9.2 mph - N/A   Clear
6:15 PM 42.8 °F 37.0 °F 15.8 °F 34% 30.23 in 10.0 mi South 10.4 mph - N/A   Clear
6:35 PM 41.0 °F 34.7 °F 15.8 °F 36% 30.23 in 10.0 mi South 10.4 mph - N/A   Clear
6:55 PM 41.0 °F 34.7 °F 15.8 °F 36% 30.24 in 10.0 mi South 10.4 mph - N/A   Clear
7:15 PM 41.0 °F 34.3 °F 15.8 °F 36% 30.24 in 10.0 mi South 11.5 mph - N/A   Clear
7:35 PM 41.0 °F 34.3 °F 15.8 °F 36% 30.24 in 10.0 mi South 11.5 mph - N/A   Clear
7:55 PM 41.0 °F 34.3 °F 15.8 °F 36% 30.24 in 10.0 mi South 11.5 mph - N/A   Clear
8:15 PM 41.0 °F 34.7 °F 15.8 °F 36% 30.25 in 10.0 mi South 10.4 mph - N/A   Clear
8:35 PM 41.0 °F 33.5 °F 15.8 °F 36% 30.25 in 10.0 mi South 13.8 mph - N/A   Clear
8:55 PM 41.0 °F 33.1 °F 15.8 °F 36% 30.25 in 10.0 mi South 15.0 mph - N/A   Clear
9:15 PM 41.0 °F 33.1 °F 15.8 °F 36% 30.25 in 10.0 mi South 15.0 mph - N/A   Clear
9:35 PM 41.0 °F 33.1 °F 14.0 °F 33% 30.26 in 10.0 mi South 15.0 mph - N/A   Clear
9:55 PM 37.4 °F 29.3 °F 14.0 °F 38% 30.26 in 10.0 mi South 12.7 mph - N/A   Clear
10:15 PM 37.4 °F 29.3 °F 14.0 °F 38% 30.27 in 10.0 mi South 12.7 mph - N/A   Clear
10:35 PM 35.6 °F 27.1 °F 15.8 °F 44% 30.27 in 10.0 mi South 12.7 mph - N/A   Clear
10:55 PM 35.6 °F 27.5 °F 15.8 °F 44% 30.27 in 10.0 mi South 11.5 mph - N/A   Clear
11:15 PM 33.8 °F 24.3 °F 14.0 °F 44% 30.27 in 10.0 mi South 13.8 mph - N/A   Clear
11:35 PM 33.8 °F 25.3 °F 14.0 °F 44% 30.27 in 10.0 mi SSW 11.5 mph - N/A   Clear
11:55 PM 37.4 °F 29.3 °F 14.0 °F 38% 30.27 in 10.0 mi SSW 12.7 mph - N/A   Clear